TimeCDT,TemperatureF,Dew PointF,Humidity,Sea Level PressureIn,VisibilityMPH,Wind Direction,Wind SpeedMPH,Gust SpeedMPH,PrecipitationIn,Events,Conditions,WindDirDegrees,DateUTC
12:15 AM,41.0,30.2,65,29.98,10.0,ENE,8.1,-,N/A,,Overcast,70,2013-04-14 05:15:00
12:35 AM,41.0,30.2,65,29.97,10.0,East,9.2,-,N/A,,Overcast,80,2013-04-14 05:35:00
12:55 AM,41.0,30.2,65,29.97,10.0,East,10.4,-,N/A,,Overcast,90,2013-04-14 05:55:00
1:15 AM,41.0,30.2,65,29.96,10.0,East,10.4,-,N/A,,Overcast,100,2013-04-14 06:15:00
1:35 AM,41.0,30.2,65,29.96,10.0,East,10.4,-,N/A,,Overcast,100,2013-04-14 06:35:00
1:55 AM,41.0,30.2,65,29.96,10.0,East,10.4,-,N/A,,Overcast,90,2013-04-14 06:55:00
2:15 AM,39.2,30.2,70,29.97,10.0,East,10.4,-,N/A,,Overcast,80,2013-04-14 07:15:00
2:35 AM,39.2,32.0,75,29.96,10.0,ENE,10.4,-,N/A,,Overcast,70,2013-04-14 07:35:00
2:55 AM,39.2,32.0,75,29.94,10.0,ENE,13.8,-,N/A,,Overcast,70,2013-04-14 07:55:00
3:15 AM,39.2,32.0,75,29.94,10.0,ENE,11.5,-,N/A,,Overcast,70,2013-04-14 08:15:00
3:35 AM,39.2,30.2,70,29.93,10.0,East,15.0,-,N/A,,Overcast,80,2013-04-14 08:35:00
3:55 AM,39.2,30.2,70,29.92,10.0,East,17.3,23.0,N/A,,Scattered Clouds,90,2013-04-14 08:55:00
4:15 AM,39.2,30.2,70,29.91,10.0,East,16.1,-,N/A,,Partly Cloudy,90,2013-04-14 09:15:00
4:35 AM,39.2,30.2,70,29.92,10.0,East,16.1,-,N/A,,Mostly Cloudy,90,2013-04-14 09:35:00
4:55 AM,39.2,30.2,70,29.92,10.0,East,16.1,-,N/A,,Mostly Cloudy,90,2013-04-14 09:55:00
5:15 AM,39.2,30.2,70,29.91,10.0,East,15.0,-,N/A,,Scattered Clouds,90,2013-04-14 10:15:00
5:35 AM,37.4,30.2,75,29.89,10.0,East,17.3,29.9,0.02,,Mostly Cloudy,90,2013-04-14 10:35:00
5:55 AM,37.4,32.0,81,29.88,10.0,East,16.1,21.9,0.02,,Mostly Cloudy,90,2013-04-14 10:55:00
6:15 AM,37.4,30.2,75,29.87,10.0,East,18.4,-,N/A,,Clear,90,2013-04-14 11:15:00
6:35 AM,37.4,30.2,75,29.87,10.0,East,18.4,-,N/A,,Partly Cloudy,90,2013-04-14 11:35:00
6:55 AM,37.4,30.2,75,29.87,10.0,East,18.4,-,N/A,,Clear,90,2013-04-14 11:55:00
7:15 AM,39.2,30.2,70,29.86,10.0,East,17.3,24.2,N/A,,Clear,90,2013-04-14 12:15:00
7:35 AM,39.2,30.2,70,29.85,10.0,East,17.3,24.2,N/A,,Clear,90,2013-04-14 12:35:00
7:55 AM,39.2,32.0,75,29.84,10.0,East,20.7,27.6,N/A,,Clear,90,2013-04-14 12:55:00
8:15 AM,39.2,32.0,75,29.83,10.0,East,21.9,-,N/A,,Partly Cloudy,100,2013-04-14 13:15:00
8:35 AM,41.0,32.0,70,29.84,10.0,East,20.7,25.3,N/A,,Partly Cloudy,100,2013-04-14 13:35:00
8:55 AM,41.0,32.0,70,29.85,10.0,ESE,25.3,-,N/A,,Partly Cloudy,110,2013-04-14 13:55:00
9:15 AM,41.0,33.8,76,29.85,10.0,ESE,25.3,29.9,N/A,,Partly Cloudy,110,2013-04-14 14:15:00
9:35 AM,42.8,33.8,70,29.85,10.0,ESE,24.2,27.6,N/A,,Clear,110,2013-04-14 14:35:00
9:55 AM,44.6,33.8,66,29.83,10.0,ESE,25.3,32.2,N/A,,Clear,110,2013-04-14 14:55:00
10:15 AM,44.6,35.6,71,29.81,10.0,ESE,25.3,29.9,N/A,,Clear,110,2013-04-14 15:15:00
10:35 AM,46.4,35.6,66,29.79,10.0,ESE,25.3,31.1,N/A,,Clear,110,2013-04-14 15:35:00
10:55 AM,48.2,37.4,66,29.78,10.0,ESE,23.0,27.6,N/A,,Clear,110,2013-04-14 15:55:00
11:15 AM,50.0,37.4,62,29.78,10.0,ESE,23.0,-,N/A,,Clear,120,2013-04-14 16:15:00
11:35 AM,51.8,39.2,62,29.76,10.0,ESE,20.7,32.2,N/A,,Clear,110,2013-04-14 16:35:00
11:55 AM,55.4,42.8,63,29.74,10.0,ESE,24.2,27.6,N/A,,Clear,120,2013-04-14 16:55:00
12:15 PM,55.4,42.8,63,29.73,10.0,SE,20.7,-,N/A,,Clear,130,2013-04-14 17:15:00
12:35 PM,59.0,44.6,59,29.73,10.0,SE,20.7,24.2,N/A,,Clear,130,2013-04-14 17:35:00
12:55 PM,60.8,44.6,55,29.72,10.0,ESE,19.6,24.2,N/A,,Clear,120,2013-04-14 17:55:00
1:15 PM,62.6,46.4,55,29.70,10.0,SE,21.9,-,N/A,,Clear,140,2013-04-14 18:15:00
1:35 PM,64.4,46.4,52,29.68,10.0,SE,19.6,26.5,N/A,,Clear,130,2013-04-14 18:35:00
1:55 PM,68.0,48.2,49,29.67,10.0,SE,16.1,24.2,N/A,,Clear,140,2013-04-14 18:55:00
2:15 PM,69.8,48.2,46,29.66,10.0,SSE,17.3,25.3,N/A,,Clear,160,2013-04-14 19:15:00
2:35 PM,69.8,48.2,46,29.65,10.0,SSE,19.6,23.0,N/A,,Clear,150,2013-04-14 19:35:00
3:15 PM,73.4,46.4,38,29.62,10.0,South,23.0,-,N/A,,Clear,170,2013-04-14 20:15:00
3:35 PM,73.4,46.4,38,29.61,10.0,South,16.1,25.3,N/A,,Clear,170,2013-04-14 20:35:00
3:55 PM,71.6,46.4,41,29.59,10.0,South,17.3,23.0,N/A,,Clear,170,2013-04-14 20:55:00
4:15 PM,71.6,44.6,38,29.58,10.0,South,19.6,24.2,N/A,,Clear,180,2013-04-14 21:15:00
4:35 PM,71.6,44.6,38,29.57,10.0,South,17.3,-,N/A,,Clear,170,2013-04-14 21:35:00
4:55 PM,73.4,46.4,38,29.57,10.0,South,20.7,24.2,N/A,,Clear,170,2013-04-14 21:55:00
5:15 PM,71.6,44.6,38,29.57,10.0,SSE,16.1,24.2,N/A,,Clear,160,2013-04-14 22:15:00
5:35 PM,71.6,44.6,38,29.56,10.0,SSE,21.9,27.6,N/A,,Clear,160,2013-04-14 22:35:00
5:55 PM,71.6,44.6,38,29.56,10.0,SSE,21.9,27.6,N/A,,Clear,160,2013-04-14 22:55:00
6:15 PM,71.6,44.6,38,29.57,10.0,South,19.6,26.5,N/A,,Clear,170,2013-04-14 23:15:00
6:35 PM,69.8,46.4,43,29.57,10.0,South,19.6,26.5,N/A,,Clear,170,2013-04-14 23:35:00
6:55 PM,69.8,46.4,43,29.57,10.0,SSE,15.0,20.7,N/A,,Clear,160,2013-04-14 23:55:00
7:15 PM,69.8,46.4,43,29.56,10.0,South,20.7,-,N/A,,Clear,170,2013-04-15 00:15:00
7:35 PM,68.0,44.6,43,29.56,10.0,South,21.9,-,N/A,,Clear,170,2013-04-15 00:35:00
7:55 PM,66.2,44.6,46,29.56,10.0,SSE,17.3,-,N/A,,Clear,160,2013-04-15 00:55:00
8:15 PM,66.2,44.6,46,29.56,10.0,SSE,16.1,-,N/A,,Clear,160,2013-04-15 01:15:00
8:35 PM,66.2,44.6,46,29.57,10.0,SSE,17.3,23.0,N/A,,Clear,160,2013-04-15 01:35:00
8:55 PM,64.4,44.6,49,29.57,10.0,South,19.6,25.3,N/A,,Clear,170,2013-04-15 01:55:00
9:15 PM,64.4,44.6,49,29.57,10.0,South,19.6,26.5,N/A,,Clear,170,2013-04-15 02:15:00
9:35 PM,64.4,44.6,49,29.56,10.0,South,20.7,27.6,N/A,,Clear,170,2013-04-15 02:35:00
9:55 PM,64.4,46.4,52,29.57,10.0,South,23.0,27.6,N/A,,Clear,170,2013-04-15 02:55:00
10:15 PM,64.4,46.4,52,29.57,10.0,South,24.2,29.9,N/A,,Clear,180,2013-04-15 03:15:00
10:35 PM,64.4,48.2,56,29.57,10.0,South,25.3,32.2,N/A,,Scattered Clouds,180,2013-04-15 03:35:00
10:55 PM,64.4,51.8,64,29.56,10.0,South,24.2,28.8,N/A,,Partly Cloudy,180,2013-04-15 03:55:00
11:15 PM,60.8,50.0,68,29.60,10.0,NW,25.3,29.9,N/A,,Scattered Clouds,310,2013-04-15 04:15:00
11:35 PM,55.4,48.2,77,29.65,5.0,NW,20.7,27.6,0.30,Thunderstorm,Thunderstorm,310,2013-04-15 04:35:00
11:55 PM,53.6,48.2,82,29.64,8.0,NW,13.8,-,0.47,Thunderstorm,Thunderstorm,320,2013-04-15 04:55:00